Total_Precipitation_Accumulation
0.00 0.00 0.00 0.00 0.01 0.01 0.01 0.04 0.11 0.14 0.13 0.19 0.29 0.49 0.64 0.63 0.80 1.19 1.41 1.39 1.38 1.69 2.19 2.55 2.79 2.96 3.27 3.43 3.55 3.45 3.57 3.90 4.17 4.01 3.66 3.40 3.05 2.79 2.59 2.38 2.22 2.20 2.19 2.32
0.00 0.01 0.00 0.01 0.01 0.01 0.02 0.06 0.13 0.15 0.14 0.22 0.37 0.59 0.75 0.85 1.10 1.26 1.18 1.19 1.37 1.68 2.19 2.57 2.82 2.94 3.18 3.48 3.89 3.92 4.00 4.30 4.39 4.15 3.93 3.72 3.49 3.09 2.95 2.80 2.55 2.22 2.08 2.16
0.01 0.01 0.01 0.01 0.01 0.02 0.04 0.06 0.12 0.12 0.19 0.32 0.41 0.80 0.97 1.09 1.23 1.22 1.18 1.35 1.42 1.52 1.90 2.18 2.26 2.44 2.62 2.79 3.03 3.26 3.65 4.08 4.14 4.13 4.01 3.91 3.80 3.27 3.04 2.83 2.58 2.29 2.09 2.03
0.01 0.01 0.01 0.02 0.02 0.02 0.06 0.05 0.05 0.08 0.17 0.43 0.50 1.02 1.23 1.42 1.49 1.31 1.26 1.24 1.26 1.49 1.81 1.83 1.71 1.86 2.11 2.10 2.37 2.72 3.09 3.37 3.54 3.63 3.58 3.54 3.38 3.10 3.00 2.82 2.44 2.17 1.97 1.93
0.02 0.02 0.02 0.04 0.03 0.03 0.05 0.04 0.06 0.10 0.18 0.38 0.44 0.78 1.27 1.59 1.69 1.33 1.22 1.15 1.24 1.45 1.51 1.52 1.55 1.65 1.79 1.94 2.23 2.48 2.72 2.95 3.10 3.13 3.11 3.07 2.92 2.75 2.67 2.53 2.25 2.01 1.85 1.76
0.02 0.04 0.04 0.03 0.03 0.04 0.04 0.07 0.13 0.19 0.35 0.68 0.59 0.69 1.19 1.49 1.32 1.15 1.12 0.96 1.05 1.27 1.37 1.44 1.51 1.62 1.72 2.00 2.31 2.54 2.73 2.89 2.94 2.70 2.54 2.48 2.44 2.39 2.27 2.10 1.93 1.73 1.61 1.53
0.13 0.10 0.07 0.05 0.06 0.07 0.08 0.17 0.55 0.90 1.22 1.12 0.70 0.80 1.38 1.25 0.89 0.81 0.90 0.89 0.90 0.98 1.13 1.24 1.40 1.60 1.76 1.84 1.87 2.16 2.48 2.65 2.62 2.39 2.19 2.07 2.10 2.07 1.99 1.84 1.73 1.63 1.46 1.35
0.28 0.25 0.13 0.09 0.12 0.13 0.13 0.24 0.69 0.93 0.97 0.96 0.77 1.16 1.59 1.19 0.80 0.66 0.75 0.76 0.68 0.64 0.61 0.69 0.85 0.93 1.02 1.03 1.04 1.16 1.35 1.52 1.59 1.52 1.51 1.51 1.54 1.55 1.56 1.62 1.52 1.47 1.38 1.25
0.16 0.15 0.10 0.12 0.17 0.18 0.24 0.28 0.29 0.49 0.66 0.98 1.00 1.18 1.20 0.93 0.73 0.68 0.77 0.73 0.59 0.53 0.47 0.52 0.60 0.59 0.67 0.69 0.73 0.84 0.99 1.11 1.15 1.15 1.13 1.13 1.15 1.21 1.24 1.26 1.24 1.23 1.22 1.15
0.10 0.10 0.10 0.11 0.15 0.18 0.20 0.28 0.42 0.66 0.88 0.98 1.03 1.33 1.46 1.28 1.03 0.82 0.79 0.73 0.56 0.46 0.41 0.43 0.50 0.49 0.59 0.71 0.84 0.96 1.02 1.03 1.00 1.00 0.99 0.90 0.97 1.00 1.03 1.00 0.96 0.94 0.93 0.95
0.08 0.09 0.12 0.18 0.22 0.22 0.23 0.30 0.45 0.61 0.68 0.85 1.14 1.23 0.95 0.89 0.91 0.96 0.99 0.84 0.58 0.44 0.39 0.40 0.45 0.47 0.53 0.64 0.74 0.84 0.92 0.99 0.94 0.88 0.91 0.91 0.89 0.87 0.88 0.89 0.84 0.84 0.83 0.82
0.09 0.11 0.16 0.24 0.21 0.16 0.22 0.32 0.47 0.70 0.75 0.78 0.89 0.94 0.55 0.53 0.64 0.76 0.77 0.62 0.44 0.37 0.35 0.36 0.37 0.36 0.44 0.54 0.62 0.66 0.71 0.83 0.83 0.81 0.84 0.89 0.88 0.83 0.80 0.76 0.74 0.76 0.77 0.78
0.15 0.15 0.26 0.52 0.48 0.26 0.25 0.24 0.35 0.49 0.58 0.65 0.82 0.91 0.55 0.52 0.64 0.69 0.67 0.53 0.42 0.39 0.38 0.41 0.38 0.33 0.37 0.47 0.56 0.60 0.65 0.74 0.80 0.81 0.85 0.84 0.85 0.83 0.76 0.66 0.65 0.64 0.66 0.71
0.12 0.13 0.23 0.58 0.63 0.42 0.31 0.27 0.30 0.42 0.52 0.49 0.48 0.62 0.60 0.58 0.70 0.69 0.64 0.52 0.40 0.34 0.35 0.39 0.43 0.37 0.36 0.38 0.43 0.49 0.60 0.72 0.73 0.74 0.76 0.72 0.70 0.70 0.71 0.69 0.63 0.59 0.58 0.62
0.12 0.15 0.16 0.25 0.33 0.37 0.36 0.29 0.26 0.29 0.32 0.41 0.42 0.55 0.66 0.64 0.64 0.56 0.51 0.48 0.39 0.32 0.31 0.32 0.31 0.30 0.31 0.33 0.36 0.42 0.45 0.54 0.63 0.69 0.70 0.67 0.67 0.66 0.64 0.60 0.56 0.54 0.52 0.48
0.17 0.22 0.21 0.28 0.34 0.36 0.38 0.35 0.27 0.23 0.24 0.29 0.34 0.46 0.49 0.52 0.49 0.45 0.42 0.38 0.35 0.27 0.23 0.23 0.23 0.19 0.20 0.24 0.28 0.35 0.38 0.42 0.50 0.55 0.56 0.63 0.66 0.63 0.62 0.56 0.51 0.49 0.50 0.53
0.26 0.30 0.30 0.35 0.42 0.48 0.50 0.32 0.29 0.29 0.26 0.37 0.54 0.55 0.47 0.58 0.47 0.38 0.36 0.30 0.24 0.20 0.17 0.17 0.15 0.15 0.17 0.21 0.27 0.32 0.37 0.42 0.46 0.48 0.51 0.52 0.56 0.60 0.58 0.51 0.49 0.47 0.48 0.53
0.30 0.44 0.47 0.45 0.58 0.72 0.56 0.30 0.25 0.29 0.26 0.26 0.35 0.37 0.37 0.53 0.45 0.33 0.24 0.22 0.19 0.17 0.15 0.14 0.15 0.16 0.18 0.22 0.27 0.35 0.40 0.43 0.47 0.52 0.54 0.53 0.53 0.58 0.60 0.55 0.52 0.53 0.55 0.56
0.26 0.41 0.48 0.53 0.65 0.66 0.51 0.40 0.34 0.39 0.41 0.25 0.27 0.30 0.31 0.35 0.37 0.34 0.21 0.19 0.18 0.16 0.16 0.14 0.13 0.16 0.22 0.25 0.28 0.34 0.38 0.42 0.49 0.55 0.57 0.56 0.55 0.58 0.60 0.59 0.62 0.65 0.69 0.63
0.36 0.45 0.56 0.53 0.64 0.80 0.63 0.48 0.39 0.43 0.71 0.44 0.31 0.28 0.32 0.35 0.50 0.48 0.26 0.18 0.15 0.14 0.15 0.17 0.18 0.22 0.27 0.30 0.37 0.45 0.47 0.51 0.56 0.57 0.57 0.57 0.62 0.67 0.69 0.73 0.82 0.86 0.88 0.82
0.70 0.71 0.70 0.65 0.66 0.64 0.60 0.48 0.41 0.72 0.87 0.49 0.39 0.35 0.36 0.37 0.42 0.40 0.29 0.21 0.18 0.17 0.17 0.18 0.25 0.36 0.39 0.37 0.46 0.55 0.62 0.63 0.63 0.69 0.71 0.71 0.75 0.83 0.87 0.98 1.07 1.10 1.06 1.06
0.88 0.90 0.86 0.83 0.92 0.90 0.69 0.65 0.73 0.79 0.69 0.56 0.45 0.40 0.34 0.33 0.31 0.31 0.28 0.27 0.25 0.23 0.25 0.23 0.26 0.39 0.49 0.53 0.64 0.72 0.74 0.77 0.84 0.88 0.89 0.90 0.98 0.90 0.88 1.08 1.16 1.23 1.28 1.23
0.81 0.85 0.88 0.92 0.93 0.80 0.74 0.80 0.77 0.70 0.78 0.72 0.55 0.48 0.38 0.37 0.32 0.28 0.26 0.27 0.28 0.28 0.28 0.29 0.35 0.45 0.58 0.70 0.81 0.96 1.02 0.99 1.02 1.06 1.08 1.10 1.14 1.17 1.18 1.29 1.31 1.31 1.32 1.28
0.83 0.75 0.89 1.02 1.02 0.93 0.92 0.84 0.75 0.71 0.76 0.72 0.55 0.49 0.43 0.39 0.34 0.32 0.31 0.30 0.29 0.31 0.29 0.30 0.38 0.45 0.60 0.79 0.97 1.08 1.12 1.07 1.11 1.19 1.19 1.27 1.37 1.37 1.40 1.49 1.48 1.42 1.39 1.38
0.88 0.87 1.05 1.20 1.19 1.16 1.19 1.00 0.80 0.71 0.64 0.59 0.50 0.46 0.42 0.40 0.37 0.33 0.33 0.32 0.29 0.27 0.27 0.31 0.39 0.50 0.57 0.66 0.84 1.02 1.11 1.16 1.26 1.34 1.37 1.44 1.53 1.58 1.61 1.54 1.51 1.46 1.47 1.41
0.88 0.93 1.05 1.17 1.08 1.05 1.05 0.94 0.72 0.69 0.70 0.64 0.61 0.57 0.46 0.44 0.46 0.40 0.34 0.31 0.27 0.26 0.29 0.37 0.43 0.50 0.57 0.63 0.77 0.95 1.13 1.25 1.41 1.46 1.48 1.52 1.54 1.60 1.60 1.58 1.48 1.36 1.28 1.19